Flag for Switzerland Weather past 2 weeks in Locarno, Ticino, Switzerland

Now
57 °F

Refreshingly cool.


Feels Like: 57 °F
Forecast: 32 / 47 °F
Wind: 3 mph from North

Location: Locarno-Monti

Current Time: Mar 28, 2015 at 11:39:08 PM

Latest Report: Mar 28, 2015 at 11:00 PM


Visibility: N/A

Pressure: 29.97 "Hg

Humidity: 41%

Dew point: 33 °F

Location of LocarnoLocation

Historic Weather in Locarno — Graph

°F

Locarno temperature yesterday

Maximum temperature yesterday: 63 °F (at 3:00 PM)
Minimum temperature yesterday: 47 °F (at 6:00 AM)
Average temperature yesterday: 56 °F

Past Weeks' High & Low Weather Summary

 TemperatureHumidityPressure
High66 °F (Mar 28, 2:00 PM)100% (Mar 17, 9:00 AM)30.42 "Hg (Mar 17, 9:00 AM)
Low40 °F (Mar 16, 7:00 AM)15% (Mar 27, 2:00 PM)29.53 "Hg (Mar 25, 5:00 PM)
Average49 °F71%30.08 "Hg
* Reported Mar 13 9:00 PM — Mar 28 9:00 PM, Locarno, Weather by CustomWeather, © 2015

Note: Actual official high and low records may vary slightly from our data, if they occured in-between our weather recording intervals... More about our weather records

Advertising

Locarno weather history for previous 24 hours

 ConditionsComfort  
Time TempWeatherWind HumidityBarometerVisibility
9:00 PM
Sat, Mar 28
59 °FRefreshingly cool.6 mph35%29.96 "HgN/A
8:00 PM60 °FRefreshingly cool.2 mph31%29.94 "HgN/A
7:00 PM62 °FPassing clouds.5 mph24%29.92 "Hg31 mi
6:00 PM64 °FMild.2 mph24%29.90 "HgN/A
5:00 PM66 °FMild.7 mph26%29.89 "HgN/A
4:00 PM65 °FPassing clouds.7 mph24%29.91 "Hg31 mi
3:00 PM66 °FMild.7 mph22%29.92 "HgN/A
2:00 PM66 °FMild.9 mph19%29.94 "HgN/A
1:00 PM65 °FPassing clouds.6 mph19%29.96 "Hg31 mi
12:00 PM61 °FRefreshingly cool.5 mph19%29.99 "HgN/A
11:00 AM60 °FRefreshingly cool.3 mph26%30.00 "HgN/A
10:00 AM55 °FCool.2 mph27%30.02 "HgN/A
9:00 AM56 °FRefreshingly cool.3 mph24%30.03 "HgN/A
8:00 AM55 °FCool.8 mph19%30.03 "HgN/A
7:00 AM51 °FSunny.5 mph22%30.03 "Hg31 mi
6:00 AM53 °FCool.9 mph18%30.02 "HgN/A
5:00 AM52 °FCool.10 mph19%30.01 "HgN/A
3:00 AM52 °FCool.6 mph23%30.00 "HgN/A
2:00 AM53 °FCool.8 mph24%30.01 "HgN/A
1:00 AM54 °FCool.8 mph21%30.02 "HgN/A
12:00 AM51 °FCool.3 mph27%30.03 "HgN/A
11:00 PM
Fri, Mar 27
56 °FRefreshingly cool.5 mph16%30.02 "HgN/A
Weather by CustomWeather, © 2015

See weather overviewHow to use our weather pages